User: anonymous   Login
Location: Charbonni�res
(45.9952°N, 2.9982°E)
Time: 06:34:56
(UTC+00:00)
Language:

Cosmos 372 Rocket - Orbit

View from above orbital plane
View from above orbital plane
View from above satellite
View from above satellite

Ground track
Ground track

The orbit data is extracted from the following two-line orbital elements,

1 04589U 70086B   21058.46593747  .00000054  00000-0  24718-4 0  9993
2 04589  74.0624 338.6157 0021559 215.6767 144.2950 14.41627956641494
Epoch (UTC): 27 February 2021 11:10:56
Eccentricity: 0.0021559
inclination: 74.0624°
perigee height: 738 km
apogee height: 768 km
right ascension of ascending node: 338.6157°
argument of perigee: 215.6767°
revolutions per day: 14.41627956
mean anomaly at epoch: 144.2950°
orbit number at epoch: 64149

The dashed part of the orbit path shows where the satellite is in the earth's shadow,  

DLR